星链-31647 (STARLINK-31647 )

导读

STARLINK-31647是美国太空探索技术公司SpaceX星链(Starlink)星座中的一颗卫星,于2024年4月2日发射入轨。星链项目旨在通过低地球轨道部署大规模卫星星座,为全球尤其是偏远欠发达地区提供高速低延迟的宽带互联网服务,STARLINK-31647的入轨进一步扩充了星链网络的覆盖能力与服务规模。

Basic Information
目录编号:
59389
目录名称:
STARLINK-31647
国际标识:
2024-062R
轨道中心:
EARTH
卫星名称:
星链-31647
卫星全名:
星链-31647 (STARLINK-31647 )
卫星状态:
在轨 (已飞行885 天)
发射日期:
2024-04-02 UTC
国别 :
美国 (US)
星等 :
--
Orbit Information
数据来源 国际轨道数据
星历时间: 2026-09-04T12:26:58+0800
9小时前
查看轨道信息
半长轴: 6840.895km
偏心率: 0.0001406
轨道倾角: 53.158°
近地点辐角 79.247°
升交点赤经 144.215°
平近点角 280.869°
近地点: 461.796km
远地点: 463.72km
周期: 93.849分钟
每日圈数: 15.343816
Detailed Information
固有亮度:
5
最大亮度:
0.3
卫星平台:
Starlink v2.0 mini
覆盖范围:
全球
运营商:
太空探索技术公司
运营商所在国:
美国
制造商(研发单位):
太空探索技术公司
制造商所在国:
美国
使用方式:
暂无
Satellite Introduction
星链(Starlink)计划是由太空探索技术公司(SpaceX)提出的一个巨型低轨卫星互联网星座项目,计划在2019年至2024年间在太空搭建由约1.2万颗卫星组成的“星链”网络,其中1584颗将部署在地球上空550千米处的近地轨道,并从2020年开始工作。该卫星仍在工作。
2D Orbit Map
3D Orbit Map
Orbit Altitude Analysis Chart
Orbit Inclination Analysis Chart
Orbit Comprehensive Analysis Chart
View Comprehensive Chart
Conjunction Data List
Event ID Objects TCA Miss Dist (km) Collision Risk Probability Collision Risk Index (CRI) Action
CDM_260905-002905-938906-576021
2026-09-05T
00:29:32+0000
0.834 km
远距离
3.149055E-5 中风险 0.65
CDM_260905-011205-938906-471021
2026-09-05T
01:12:41+0000
0.888 km
远距离
2.853196E-5 中风险 0.64
CDM_260906-064005-938906-350021
2026-09-06T
06:40:39+0000
1.274 km
极远距离
9.055097E-6 低风险 0.54
CDM_260905-103905-938906-576021
2026-09-05T
10:39:11+0000
1.300 km
极远距离
6.890265E-6 低风险 0.52
CDM_260905-235605-938906-935921
2026-09-05T
23:56:07+0000
1.373 km
极远距离
5.580061E-6 低风险 0.5
CDM_260906-012905-938906-935921
2026-09-06T
01:29:55+0000
1.497 km
极远距离
4.205397E-6 低风险 0.47
CDM_260905-030805-938906-140221
2026-09-05T
03:08:53+0000
2.422 km
极远距离
1.837491E-6 低风险 0.4
CDM_260905-121205-938906-576021
2026-09-05T
12:12:58+0000
2.253 km
极远距离
1.447961E-6 低风险 0.38
CDM_260905-020305-938906-576021
2026-09-05T
02:03:19+0000
2.294 km
极远距离
1.395398E-6 低风险 0.38
CDM_260905-160105-276305-938921
2026-09-05T
16:01:23+0000
2.854 km
极远距离
1.24158E-6 低风险 0.37